sat.trackr.live / text

‹ back to catalog

STARLINK-2476

NORAD 48134 · 2021-027AU

PAYLOAD ACTIVE UNKNOWN

§ Identity

Operator
Country
US
Launch date
2021-04-07
Launch site
AFETR
Launch vehicle
Mass (kg)
RCS (m²)

Purposes: comms

External: N2YO · Heavens-Above · Gunter

§ Orbital elements

Epoch: 2026-05-25T02:18:06.232608Z

Period
94.01 min
Inclination
53.1584°
Eccentricity
0.0001390
Mean motion
15.31707194 rev/d
Perigee alt
469.8 km
Apogee alt
471.7 km
Semi-major
6,848.9 km
B*
4.8178e-5
RAAN
169.8776°
Arg perigee
76.9913°
Mean anomaly
283.1243°
Rev number
28,421

§ Raw data

STARLINK-24761 48134U 21027AU  26145.09590547  .00001130  00000+0  48178-4 0  99952 48134  53.1584 169.8776 0001390  76.9913 283.1243 15.31707194284218

JSON: /api/v1/satellites/48134 · /tle

For live sub-satellite position, see the globe view (requires WebGL).

§ Visibility from observer

Set your observer location to see the next 7 days of passes ≥ 10°. The values pass through the URL so the page stays shareable.

No JS? Fill the form by hand. The geolocation button needs JavaScript.